User: anonymous   Login
Location: Unspecified
(0.0000°N, 0.0000°E)
Time: 06:54:45
(UTC+00:00)
Language:

STARLINK-35388 - Orbit

View from above orbital plane
View from above orbital plane
View from above satellite
View from above satellite

Ground track
Ground track

The orbit is defined by the following mean orbital elements,

1 66466U          26145.61452866 +.00000000 +00000-0 +24384-3 0 00001
2 66466  43.0005 221.5177 0001512 270.7565  89.3113 15.27583239    08
Epoch (UTC): 25 May 2026 14:44:55
Eccentricity: 0.0001512
inclination: 43.0005°
perigee height: 482 km
apogee height: 484 km
right ascension of ascending node: 221.5177°
argument of perigee: 270.7565°
revolutions per day: 15.27583239
mean anomaly at epoch: 89.3113°

The dashed part of the orbit path shows where the satellite is in the earth's shadow,  

DLR